Regional Weather Roundup
Issued by NWS Green Bay, WI

Home | Current Version | Previous Version | Text Only | Print | Product List | Glossary On
Versions: 1 2 3 4 5 6 7 8 9 10 11 12 13 14 15 16 17 18 19 20 21 22 23 24 25 26 27 28 29 30 31 32 33 34 35 36 37 38 39 40 41 42 43 44 45 46 47 48 49 50
000
ASUS43 KGRB 200400
RWRGRB

NORTH-CENTRAL AND NORTHEAST WISCONSIN REGIONAL WEATHER ROUNDUP
NATIONAL WEATHER SERVICE GREEN BAY WI
1000 PM CST SUN FEB 19 2017

WIZ005-009-010>012-018-019-200500-
NORTH CENTRAL WISCONSIN

CITY           SKY/WX    TMP DP  RH WIND       PRES   REMARKS
IRONWOOD       CLOUDY    44  28  53 E8        30.00S
MANITOWISH WTR NOT AVBL
ARBOR VITAE    NOT AVBL
EAGLE RIVER    NOT AVBL
LAND O LAKES   CLOUDY    41  30  65 SE7       30.07S
RHINELANDER    PTCLDY    44  32  62 SE8       30.06R
PHILLIPS       PTCLDY    45  31  58 SE5       30.01R
ANTIGO         NOT AVBL
TOMAHAWK       NOT AVBL
MERRILL        NOT AVBL
$$

WIZ013-073-200500-
NORTHEAST WISCONSIN

CITY           SKY/WX    TMP DP  RH WIND       PRES   REMARKS
IRON MOUNTAIN  CLOUDY    35  27  72 SE3       30.12R
MARINETTE      PTCLDY    33  30  88 NE5       30.15R
$$

WIZ017-030-035>037-045-200500-
CENTRAL WISCONSIN

CITY           SKY/WX    TMP DP  RH WIND       PRES   REMARKS
MEDFORD        NOT AVBL
WAUSAU         MOCLDY    44  32  62 SE7       30.05R
MOSINEE        CLEAR     45  34  65 E8        30.07R
MARSHFIELD     PTCLDY    44  32  62 E5        30.03R
WISC RAPIDS    CLOUDY    45  35  68 E7        30.06R
STEVENS POINT  NOT AVBL
WAUPACA        CLOUDY    41  33  72 CALM      30.09S
SHAWANO        CLOUDY    37  32  81 NE7       30.11S
CLINTONVILLE   PTCLDY    39  30  70 E3        30.10R
WAUTOMA        PTCLDY    41  34  76 E5        30.08R
$$

WIZ038-039-048-051-200500-
FOX VALLEY

CITY           SKY/WX    TMP DP  RH WIND       PRES   REMARKS
NWS GREEN BAY  PTCLDY    36  32  85 NE3       30.12R
APPLETON       PTCLDY    39  28  65 E5        30.09R
OSHKOSH        PTCLDY    38  30  73 SE6       30.09R
FOND DU LAC    CLOUDY    40  29  64 SE12      30.10R
$$

WIZ022-050-052-200500-
EAST CENTRAL WISCONSIN

CITY           SKY/WX    TMP DP  RH WIND       PRES   REMARKS
EPHRAIM        NOT AVBL
WASHINGTON ISL FAIR      36  30  80 CALM      30.15R
STURGEON BAY   PTCLDY    37  33  85 E7        30.14R
MANITOWOC      NOT AVBL
SHEBOYGAN      LGT RAIN  33  30  88 CALM      30.12R
$$

LMZ563-521-522-541>543-200500-
LAKESHORE

STATION/POSITION TIME  TEMP    WIND        PRES    VSBY  WAVE
                       AIR SEA DIR/SP/G                  HT/PER
                 (UTC) (F)     (DEG/KT/KT) (MB)    (MI)  (FT/S)
SHEBOYGAN LKSHOR 0300   38      20/  1/  2 1020.0S
KEWAUNEE LKSHORE 0330   37      CALM  /  3 1019.7R
NORTHPORT PIER   0340   36     140/  2/  4 1020.7R
SISTER BAY LKSHO 0305   39     110/ 11/ 14   N/A
CHAMBERS ISLAND  0340   35      CALM  /  1 1020.3R
MENOMINEE LKSHOR 0330   34     330/  3/  3 1019.5R
$$



USA.gov is the U.S. government's official web portal to all federal, state and local government web resources and services.